Dewpoint
75 74 75 73 72 72 73 73 76 75 75 74 74 74 74 73 72 73 74 73 74 73 73 73 74 74 73 71 69 70 72 72 71 71 72 72 72 73 73 73 73 71 72 70 68 68 70 69 69 68 68 65 64 62 61 62 64 63 63 62 62 65 66 69 67 68 71 69 71 72 74 74 74 74 73 73 74 73 74 74 74 71 73 72 72
74 74 73 73 74 72 73 75 76 75 75 74 73 73 73 74 74 74 72 73 73 73 73 71 72 72 71 71 72 69 71 74 73 74 72 70 70 69 71 74 73 73 72 72 70 67 69 71 69 68 68 67 65 62 62 61 61 60 61 61 61 62 65 65 66 67 70 72 72 72 72 73 74 75 74 72 73 74 73 73 75 74 74 73 73
74 74 74 74 75 75 75 75 75 74 74 74 74 73 73 74 73 72 72 73 73 72 71 71 71 71 71 71 72 71 72 73 74 74 74 73 72 71 69 71 71 71 70 70 69 70 69 70 69 69 66 66 66 64 62 62 62 62 61 61 61 61 62 66 67 68 68 69 72 72 73 73 73 75 75 74 75 74 74 73 73 73 73 72 72
74 73 74 74 74 73 73 74 75 74 73 73 73 73 72 73 73 72 73 72 71 72 72 70 70 73 73 72 71 72 71 72 74 73 74 73 72 71 71 72 71 70 69 69 68 69 69 70 69 69 69 69 68 67 67 64 64 65 63 64 64 63 63 64 69 70 70 68 72 70 71 72 73 75 75 75 75 74 74 74 72 72 72 72 71
72 72 74 73 73 73 73 73 73 73 73 73 73 73 73 73 72 72 72 72 72 71 72 71 72 72 71 72 72 72 71 72 73 72 73 72 72 72 72 71 71 71 71 71 71 71 70 70 70 71 71 70 69 68 66 66 66 66 66 66 66 65 63 63 68 70 70 69 71 73 73 73 74 75 75 74 74 74 73 72 72 72 71 71 70
72 73 73 73 74 74 73 73 72 73 73 72 72 72 73 73 72 73 73 73 74 73 71 71 72 72 73 73 71 72 72 73 73 74 72 73 71 73 72 71 71 72 71 70 71 71 70 71 72 74 72 70 69 69 70 69 68 67 66 67 67 67 67 67 67 71 70 69 70 73 74 73 74 75 75 75 73 71 71 71 71 72 71 69 68
73 72 72 72 73 72 72 72 72 72 73 73 72 71 71 72 72 72 72 72 72 71 71 72 72 72 73 72 72 72 73 73 75 75 74 73 72 71 70 71 71 71 71 71 71 72 72 72 72 74 73 72 70 70 70 71 70 70 70 70 68 68 67 67 67 68 70 69 69 72 73 73 75 74 76 76 74 72 71 70 70 71 71 70 68
73 73 72 72 72 72 72 72 72 72 73 73 73 72 71 71 72 71 72 72 70 70 71 70 71 72 72 71 72 74 74 74 74 76 75 73 72 71 71 71 70 70 70 71 71 71 73 74 74 75 75 74 74 73 71 71 72 71 70 71 70 70 68 65 66 67 68 68 67 70 72 72 73 74 75 75 73 72 72 71 70 70 69 70 70
75 75 74 73 74 74 74 73 73 73 74 74 73 72 71 71 72 72 72 71 72 72 72 71 71 72 72 72 72 72 71 70 70 71 72 72 72 70 71 70 71 70 71 70 70 70 72 74 74 73 74 74 74 75 74 73 72 72 73 72 73 72 71 69 67 66 67 68 69 70 73 72 73 73 74 73 71 71 72 71 71 71 71 69 69
75 74 73 73 72 72 73 73 73 72 72 72 74 73 72 72 72 72 72 72 73 73 74 73 72 72 72 72 71 71 71 71 75 75 75 74 74 73 73 73 72 72 72 71 71 74 72 72 74 74 74 74 74 75 76 76 76 72 74 73 74 73 72 71 69 67 68 70 70 70 71 72 71 73 73 73 73 73 72 72 70 72 71 70 70
75 72 72 73 73 73 72 72 72 72 73 72 73 73 72 73 73 74 74 74 74 75 74 74 72 72 73 72 72 71 71 73 71 69 70 72 73 73 72 73 72 73 73 73 73 74 73 72 73 72 74 74 74 74 75 76 75 75 75 75 75 75 74 70 69 69 69 69 70 71 69 70 70 71 71 72 73 73 72 72 71 72 70 68 67
73 72 72 73 72 72 72 73 72 72 73 73 74 75 74 74 74 74 72 71 73 72 72 72 73 72 71 71 70 71 72 69 67 68 68 68 71 73 71 71 72 72 72 72 72 72 72 73 72 74 73 74 74 74 74 74 75 75 75 75 74 74 75 76 74 72 71 70 71 72 70 70 71 72 72 72 73 73 73 73 72 71 70 69 69
72 72 72 72 73 72 72 72 72 72 72 73 73 72 72 71 71 70 69 69 70 70 70 69 69 69 69 71 71 71 71 68 66 67 67 67 68 72 72 72 72 73 73 73 72 72 73 72 72 73 73 74 74 74 75 74 74 74 74 74 74 74 71 70 72 75 74 73 72 72 71 72 72 72 73 72 75 74 73 72 73 72 71 69 70
72 72 72 72 72 72 72 72 71 72 71 72 72 72 71 71 70 70 68 69 68 67 67 67 67 70 69 70 71 71 72 67 65 65 64 64 66 69 72 72 73 73 74 75 74 74 73 72 72 72 72 74 74 75 75 75 75 75 75 75 75 74 74 73 72 72 74 74 74 74 73 73 74 74 74 75 75 74 73 72 73 72 72 70 72
72 71 71 72 72 72 72 72 71 71 71 71 71 70 70 70 69 69 68 68 67 67 65 65 66 67 67 67 68 69 70 63 63 63 62 62 64 69 71 72 72 72 73 72 73 73 72 72 73 73 72 73 73 74 75 75 75 75 75 75 75 74 74 74 75 76 77 76 75 75 75 75 74 74 76 76 76 75 74 74 73 74 73 72 72
71 71 71 71 72 72 72 71 71 71 71 70 70 70 69 69 69 68 68 67 67 66 66 66 66 66 66 67 65 66 67 61 61 61 61 61 64 67 69 70 70 69 70 71 72 73 73 73 72 73 73 74 73 73 73 74 74 73 74 74 74 74 74 74 72 71 76 77 76 74 74 73 72 76 77 75 75 76 75 75 74 73 73 71 70
70 70 70 70 70 71 71 71 71 71 71 70 70 70 69 68 68 67 67 66 66 66 66 65 66 67 67 67 67 68 67 62 60 60 60 60 65 66 68 67 68 69 69 70 70 71 71 71 72 72 72 73 72 68 69 72 73 71 72 73 73 73 74 75 70 67 67 65 66 69 69 68 67 65 65 67 74 75 75 75 73 72 69 67 69
69 70 69 70 71 71 71 71 71 71 71 69 68 68 68 68 67 67 66 66 66 66 67 66 67 66 67 68 65 67 66 63 59 59 59 59 64 66 67 67 67 67 68 69 69 70 70 70 71 71 71 72 69 66 66 72 73 72 72 71 72 73 73 74 74 74 67 66 66 66 66 66 67 66 66 66 66 71 73 73 71 72 69 69 68
69 70 69 70 70 70 71 70 70 69 68 68 68 68 67 67 67 67 67 66 67 67 65 65 66 67 67 67 66 66 65 64 59 58 58 60 64 66 66 66 66 66 65 66 67 68 68 69 70 71 71 71 66 64 64 71 72 72 71 70 71 71 73 74 73 72 73 73 74 73 73 71 72 72 73 69 68 71 74 72 73 72 70 70 69
71 71 70 71 70 71 70 70 70 69 68 68 68 67 67 67 67 66 67 66 65 65 66 65 66 66 67 67 66 66 66 66 65 58 58 59 60 66 66 65 64 65 65 65 65 66 66 67 69 70 67 66 63 61 61 62 70 72 72 71 71 72 73 73 73 72 72 72 72 73 74 74 74 74 73 73 73 72 72 74 73 72 70 70 70
71 70 71 70 70 70 70 69 69 69 69 68 68 67 67 66 66 66 65 66 66 66 66 65 65 64 65 65 65 65 65 66 66 57 57 56 57 61 65 65 65 65 65 65 64 63 65 65 67 65 60 58 57 56 56 59 64 71 72 72 70 70 70 71 71 70 71 71 71 72 73 72 72 72 73 73 73 73 72 71 70 71 71 70 69
71 71 71 70 70 70 70 70 69 68 68 68 67 66 67 67 66 65 65 65 65 65 65 65 64 63 63 63 63 64 65 64 65 59 57 56 56 58 63 65 66 65 65 65 65 65 66 68 69 63 57 56 56 54 54 57 62 71 69 59 61 61 71 71 71 71 70 70 70 70 71 70 70 71 71 72 71 70 70 70 71 70 70 71 70
71 71 71 70 70 70 70 70 69 68 68 67 66 66 66 66 65 65 65 65 65 64 64 64 63 64 63 64 65 64 65 66 63 65 58 57 55 56 56 59 61 64 65 65 65 65 66 67 67 62 54 52 53 54 55 56 66 65 57 59 60 61 68 69 70 70 70 70 69 70 71 70 69 69 70 70 67 67 66 66 67 68 68 67 68
71 70 70 69 69 69 69 69 68 68 67 67 66 66 65 64 65 65 64 64 64 63 63 63 63 62 63 63 63 64 65 65 63 62 62 58 56 54 54 55 56 63 65 65 65 65 66 66 63 53 50 49 51 54 55 59 63 55 55 58 60 65 67 68 68 69 68 68 69 69 69 69 69 69 69 67 66 66 65 64 64 64 64 64 65
70 70 69 69 68 68 68 67 68 67 67 67 65 65 64 64 64 65 65 64 63 63 63 63 63 64 63 63 64 64 64 65 65 64 62 62 57 56 57 57 57 55 64 65 65 65 56 52 51 52 53 53 54 54 56 59 57 55 56 58 66 66 66 66 67 67 67 67 67 67 68 69 68 67 66 66 65 65 64 63 63 63 62 62 62
70 69 68 68 67 67 66 66 66 67 66 65 64 64 63 63 62 63 63 63 64 63 63 62 61 63 63 63 63 64 64 63 65 65 64 63 61 59 58 60 61 61 61 62 60 57 56 55 55 55 57 59 65 65 65 65 61 62 62 65 65 64 65 65 66 66 66 65 65 65 68 67 66 66 66 65 64 63 63 62 62 61 61 60 59
69 68 68 66 65 64 62 61 61 62 63 61 61 62 62 61 62 62 62 61 62 62 63 62 62 61 63 63 62 64 63 63 63 64 65 65 63 64 64 64 62 63 62 64 62 62 62 62 60 58 58 60 62 62 62 64 64 65 65 63 63 64 64 65 65 66 66 66 66 67 65 65 65 65 64 63 62 62 62 61 60 59 59 59 58
67 67 65 64 63 63 62 62 62 59 60 61 59 59 61 62 60 61 60 61 60 60 60 61 61 61 61 61 62 62 62 61 63 63 65 61 61 60 61 61 61 60 59 62 63 63 63 61 61 63 64 63 63 63 62 63 62 62 63 63 64 64 63 64 64 65 66 66 65 65 64 64 63 63 62 62 61 62 62 61 60 59 59 58 57
67 66 64 64 62 64 61 61 61 60 60 63 61 62 61 58 60 61 61 62 60 58 59 59 60 59 59 61 62 61 60 61 62 51 61 51 59 63 61 60 60 60 61 56 61 62 62 63 61 62 61 61 60 61 61 62 62 62 63 63 63 63 63 63 63 63 63 64 63 63 62 62 61 61 61 61 61 60 60 59 59 58 58 57 56
66 64 64 62 60 61 60 59 61 61 59 60 61 61 54 50 53 57 58 58 54 46 48 58 57 59 59 61 62 60 61 61 50 47 46 45 45 45 46 44 44 53 57 52 60 62 61 60 59 59 59 60 59 60 60 61 61 61 61 61 62 62 62 62 62 62 62 61 62 60 61 61 61 60 59 59 60 59 59 59 58 58 57 56 55
65 63 64 63 61 60 60 59 62 63 61 59 59 59 57 58 43 44 50 53 48 43 40 42 45 51 58 59 58 50 51 47 44 45 46 45 43 42 42 41 41 42 45 61 61 60 58 58 58 59 60 60 60 61 61 60 60 60 61 61 61 62 61 61 61 61 61 60 60 60 59 59 59 60 59 59 58 58 60 59 58 57 57 56 55
68 66 64 65 65 65 62 62 63 62 62 62 62 61 60 60 60 45 43 46 46 43 41 41 41 43 47 53 62 60 50 44 43 44 45 44 43 42 41 41 41 41 43 47 60 57 57 57 58 58 59 59 59 59 59 59 59 59 58 59 60 61 61 60 61 60 60 59 59 59 59 59 59 59 60 60 60 58 58 57 57 56 56 56 55
70 70 68 67 65 66 63 64 64 63 63 62 61 62 61 59 59 59 56 44 43 42 42 42 41 42 43 43 43 52 53 49 43 43 43 42 42 41 41 40 41 40 43 59 57 54 57 58 58 59 58 56 56 56 57 55 55 54 54 54 57 60 60 62 62 60 60 59 59 59 58 58 58 58 58 58 58 57 57 57 56 56 56 55 55
69 69 68 66 67 66 65 65 64 63 63 62 61 62 61 61 59 59 58 58 58 50 42 43 42 42 41 41 44 44 44 44 44 44 44 43 42 41 40 53 47 41 51 61 57 56 57 57 57 57 56 56 55 55 56 56 56 54 54 55 56 58 61 62 62 60 60 59 59 59 59 59 59 58 58 58 58 57 57 56 56 56 55 54 54
68 68 67 66 67 67 66 65 65 64 63 62 62 62 61 61 62 61 59 59 59 60 58 59 46 40 53 46 43 43 43 43 44 43 42 42 42 43 40 59 60 56 61 57 56 54 53 55 55 55 56 54 54 54 55 57 57 56 55 56 56 56 58 59 59 61 60 59 59 59 59 59 59 58 57 57 57 56 56 56 56 56 55 54 54
68 67 67 66 66 66 66 66 66 65 64 64 63 61 60 60 60 60 59 61 60 59 59 59 60 53 47 46 43 42 42 43 42 42 41 41 41 41 60 58 52 51 51 53 54 55 54 53 53 54 55 55 55 54 54 55 56 56 57 57 55 56 58 59 60 60 60 60 59 59 57 57 56 56 56 56 56 55 54 54 54 54 54 53 53
67 66 66 66 66 65 65 66 66 66 64 63 63 61 60 59 58 58 60 60 60 60 60 60 60 60 54 59 54 42 40 42 42 41 41 41 39 49 57 53 51 51 50 50 51 52 54 54 53 55 54 55 55 54 53 51 51 55 59 59 58 56 58 59 59 60 59 56 56 57 57 55 55 55 54 54 53 53 52 52 52 51 51 51 53
66 66 66 66 66 65 65 65 65 64 63 63 63 62 59 59 59 60 60 61 61 60 60 60 60 59 59 59 60 58 57 44 44 43 43 42 51 58 54 53 53 51 50 51 51 51 52 52 52 53 54 52 53 53 51 53 50 50 51 56 58 59 58 59 60 60 59 56 57 56 56 55 55 54 54 53 52 52 52 52 51 51 54 53 53
67 65 64 63 64 65 64 64 64 63 63 62 61 61 58 58 59 58 59 60 61 61 61 61 60 58 58 60 59 60 60 58 55 54 54 54 56 55 53 52 52 50 50 52 51 53 52 53 54 55 55 54 54 54 53 52 52 54 54 51 52 56 57 57 60 59 57 56 56 57 55 55 54 54 54 54 53 54 53 53 53 53 52 51 50
66 66 64 63 64 64 63 64 63 62 62 61 60 59 58 58 58 58 58 60 60 60 60 60 59 60 59 61 59 59 56 54 55 55 55 55 55 55 55 55 53 52 53 52 50 51 52 51 52 53 55 56 55 54 56 55 54 53 55 53 52 52 50 53 54 57 57 57 56 56 56 56 55 55 56 53 53 54 56 53 52 51 50 51 52
66 66 66 63 63 63 63 63 62 62 62 61 60 58 58 58 59 58 58 58 59 60 60 60 59 61 60 60 54 53 57 56 54 55 54 54 55 55 55 55 54 55 55 54 53 53 51 51 50 51 53 52 54 53 54 53 52 52 52 52 52 51 50 51 52 52 54 55 55 56 55 55 54 55 51 52 57 55 54 53 53 52 52 52 53
66 65 65 64 64 63 63 62 62 62 63 62 61 58 58 58 58 58 57 58 58 59 59 59 59 60 57 50 49 46 56 56 54 54 55 54 56 56 56 56 56 57 56 54 55 56 54 56 53 52 51 52 53 53 53 53 52 52 51 51 52 51 50 50 50 53 52 52 54 54 54 53 52 52 52 58 52 51 52 52 52 54 53 52 52
66 65 65 65 63 63 62 62 62 62 62 61 59 59 58 58 59 60 58 57 57 57 57 58 58 60 60 51 51 48 56 55 56 55 55 55 55 55 56 56 55 58 57 56 55 55 55 55 55 56 54 54 56 54 53 53 54 52 52 53 53 52 51 51 50 50 49 51 51 53 55 54 54 53 54 52 51 53 52 52 51 51 51 52 52
66 65 64 64 63 63 63 62 62 62 62 61 60 58 58 58 59 59 57 57 57 56 56 57 58 60 60 55 54 54 55 54 55 54 56 54 54 54 53 53 54 55 55 56 56 56 56 55 55 54 56 55 57 57 54 53 53 53 53 53 52 52 52 52 52 51 49 48 49 51 52 53 52 52 53 49 52 51 51 51 52 51 50 49 50
66 65 64 63 64 63 63 63 62 62 61 60 58 57 57 58 58 57 56 55 55 55 55 56 56 59 58 58 57 56 55 56 54 53 53 53 53 53 52 53 54 57 55 54 54 56 56 54 55 56 57 56 55 54 56 55 54 52 52 53 55 52 50 51 53 53 51 51 48 49 49 51 51 51 52 51 53 52 50 50 49 53 51 50 49
65 64 64 63 63 63 63 63 62 62 60 59 57 56 56 57 58 57 54 54 54 53 54 54 55 57 57 57 55 55 55 55 54 52 52 52 51 52 53 53 54 54 54 53 55 56 54 55 53 54 55 56 56 57 55 55 56 54 54 54 54 53 53 52 52 53 53 52 49 48 48 49 51 51 52 52 51 52 52 52 50 49 51 51 52
65 65 64 63 63 63 63 64 63 62 61 58 57 56 55 56 56 56 56 56 55 54 53 53 53 56 56 57 56 55 54 54 53 52 52 53 53 53 53 54 53 54 53 54 56 54 56 55 54 54 54 54 55 58 55 53 55 54 54 52 53 54 53 53 51 53 53 53 51 49 48 48 48 51 49 50 51 50 52 52 51 50 48 49 49
65 65 65 64 63 62 62 63 61 61 60 58 56 55 55 55 56 57 57 57 57 56 55 54 53 53 55 55 56 55 54 53 54 54 52 53 52 53 54 56 55 54 54 54 56 54 54 54 55 55 55 55 54 54 55 56 54 53 52 52 52 53 55 50 54 53 53 52 51 50 51 49 48 49 49 49 49 49 50 50 52 51 50 49 49
65 65 64 63 63 62 62 61 61 60 59 57 55 54 55 56 56 57 57 57 56 56 56 55 54 53 53 54 54 55 55 54 53 53 52 52 53 54 54 55 56 55 54 54 54 55 55 55 54 55 55 55 55 54 55 54 53 53 54 54 52 48 48 47 49 53 56 52 51 50 51 50 50 50 49 50 48 48 50 50 52 51 50 51 50
65 65 64 64 63 62 63 62 61 62 60 57 56 56 56 56 56 56 56 56 57 56 56 56 56 55 53 51 52 53 55 53 53 53 53 53 53 54 54 56 57 57 56 55 54 54 54 57 56 55 54 55 54 55 53 53 53 52 53 56 48 48 47 47 46 48 55 52 51 51 49 49 50 49 49 50 51 50 49 49 49 50 50 50 50
64 64 64 63 63 63 62 62 62 61 59 59 57 56 56 56 56 57 57 57 57 58 57 57 57 55 55 53 51 50 51 53 53 52 52 53 54 55 55 55 55 57 57 57 56 55 55 55 55 55 55 54 53 53 54 53 52 53 53 48 48 45 43 43 53 46 45 46 53 51 50 50 50 49 48 48 48 48 47 49 49 49 49 47 49